Location: Miami, Florida
(25.6830°N, 80.1700°W)
Time: 12:53:49
(UTC-04:00)

Vanguard 1 - All Passes

Search period start: 21 February 2018 00:00
Search period end: 03 March 2018 00:00
Orbit: 650 x 3833 km, 34.2° (Epoch: 21 February)

Date Brightness Start Highest point End Pass type
(mag) Time Alt. Az. Time Alt. Az. Time Alt. Az.
21 Feb - 10:29:31 10° S 10:41:36 17° SE 10:51:46 10° ESE daylight
21 Feb - 12:48:13 10° SSW 13:07:41 47° SSE 13:19:28 10° E daylight
21 Feb - 15:14:46 10° WSW 15:31:36 85° NNW 15:40:16 10° ENE daylight
21 Feb - 17:43:55 10° W 17:54:00 45° N 17:59:48 10° ENE daylight
21 Feb - 20:09:28 10° WNW 20:15:38 52° NNE 20:20:03 10° E visible
21 Feb - 22:31:37 10° W 22:35:34 29° SSW 22:39:37 10° SSE visible
22 Feb - 10:47:28 10° S 11:03:30 24° SE 11:16:00 10° E daylight
22 Feb - 13:08:57 10° SW 13:29:12 58° SSE 13:40:52 10° ENE daylight
22 Feb - 15:36:50 10° WSW 15:52:53 72° NNW 16:01:12 10° ENE daylight
22 Feb - 18:06:01 10° WNW 18:15:22 43° N 18:20:53 10° ENE daylight
22 Feb - 20:30:44 10° WNW 20:36:45 71° NNE 20:41:11 10° ESE visible
22 Feb - 22:53:32 10° WSW 22:56:26 17° SW 22:59:26 10° S visible
23 Feb - 11:06:36 10° SSW 11:25:14 32° SE 11:38:53 10° E daylight
23 Feb - 13:30:06 10° SW 13:50:39 71° SSE 14:02:04 10° ENE daylight
23 Feb - 15:59:07 10° W 16:14:13 62° NNW 16:22:09 10° ENE daylight
23 Feb - 18:27:57 10° WNW 18:36:45 45° N 18:42:02 10° ENE daylight
23 Feb - 20:51:59 10° WNW 20:57:44 77° SSW 21:02:07 10° ESE visible
24 Feb - 09:12:15 10° SSE 09:20:12 13° SE 09:27:41 10° ESE daylight
24 Feb - 11:26:26 10° SSW 11:46:53 41° SE 12:01:03 10° E daylight
24 Feb - 13:51:37 10° WSW 14:12:04 84° SSE 14:23:09 10° ENE daylight
24 Feb - 16:21:31 10° W 16:35:37 55° NNW 16:43:08 10° ENE daylight
24 Feb - 18:49:40 10° WNW 18:58:06 49° N 19:03:13 10° E daylight
24 Feb - 21:13:19 10° WNW 21:18:35 47° SSW 21:22:49 10° SE visible
25 Feb - 09:28:06 10° S 09:42:08 19° SE 09:54:35 10° ESE daylight
25 Feb - 11:46:46 10° SW 12:08:27 52° SE 12:22:46 10° ENE daylight
25 Feb - 14:13:29 10° WSW 14:33:28 84° NNW 14:44:10 10° ENE daylight
25 Feb - 16:43:55 10° W 16:57:04 51° N 17:04:11 10° ENE daylight
25 Feb - 19:11:13 10° WNW 19:19:22 60° NNE 19:24:22 10° E daylight
25 Feb - 21:34:55 10° W 21:39:20 27° SW 21:43:06 10° SSE visible
26 Feb - 09:46:23 10° S 10:03:50 27° SE 10:18:37 10° E daylight
26 Feb - 12:07:32 10° SW 12:29:59 63° SSE 12:44:12 10° ENE daylight
26 Feb - 14:35:39 10° WSW 14:54:55 73° NNW 15:05:10 10° ENE daylight
26 Feb - 17:06:13 10° WNW 17:18:34 50° N 17:25:18 10° ENE daylight
26 Feb - 19:32:40 10° WNW 19:40:31 79° NNE 19:45:24 10° ESE visible
26 Feb - 21:57:08 10° WSW 22:00:01 15° SW 22:02:40 10° S visible
27 Feb - 10:05:38 10° SSW 10:25:26 35° SE 10:41:29 10° E daylight
27 Feb - 12:28:42 10° SW 12:51:30 75° SSE 13:05:27 10° ENE daylight
27 Feb - 14:58:03 10° W 15:16:26 65° NNW 15:26:11 10° ENE daylight
27 Feb - 17:28:21 10° WNW 17:40:03 52° N 17:46:28 10° E daylight
27 Feb - 19:54:07 10° WNW 20:01:30 73° SSW 20:06:15 10° SE visible
28 Feb - 08:11:26 10° SSE 08:20:37 14° SE 08:29:41 10° ESE daylight
28 Feb - 10:25:31 10° SSW 10:46:57 45° SE 11:03:41 10° ENE daylight
28 Feb - 12:50:13 10° WSW 13:13:01 86° SSE 13:26:36 10° ENE daylight
28 Feb - 15:20:35 10° W 15:38:00 59° NNW 15:47:16 10° ENE daylight
28 Feb - 17:50:17 10° WNW 18:01:28 57° N 18:07:38 10° E daylight
28 Feb - 20:15:38 10° WNW 20:22:19 47° SW 20:26:51 10° SE visible
01 Mar - 08:27:47 10° S 08:42:16 20° SE 08:56:17 10° E daylight
01 Mar - 10:45:52 10° SW 11:08:28 55° SE 11:25:27 10° ENE daylight
01 Mar - 13:12:05 10° WSW 13:34:36 83° NNW 13:47:41 10° ENE daylight
01 Mar - 15:43:08 10° W 15:59:37 56° N 16:08:23 10° ENE daylight
01 Mar - 18:12:03 10° WNW 18:22:49 68° NNE 18:28:44 10° E daylight
01 Mar - 20:37:24 10° W 20:42:58 28° SW 20:47:03 10° SSE visible
02 Mar - 08:46:12 10° S 09:03:44 28° SE 09:20:21 10° E daylight
02 Mar - 11:06:36 10° SW 11:30:00 66° SSE 11:46:57 10° ENE daylight
02 Mar - 13:34:16 10° WSW 13:56:13 74° NNW 14:08:47 10° ENE daylight
02 Mar - 16:05:35 10° WNW 16:21:16 56° N 16:29:34 10° ENE daylight
02 Mar - 18:33:43 10° WNW 18:44:01 86° NNE 18:49:43 10° ESE daylight
02 Mar - 20:59:47 10° W 21:03:30 16° SW 21:06:34 10° S visible
